Location: All Nations United Methodist Church
(33.0215°N, 96.7483°W)
Time: 14:47:11
(UTC+00:00)

SMAP - Pass Details

Date: 24 January 2021
Orbit: 682 x 683 km, 98.1° (Epoch: 07 March)

Event Time Altitude Azimuth Distance (km) Brightness Sun altitude
Rises 12:55:23 0° 7° (N) 3,048 6.3 -7.0°
Reaches altitude 10° 12:57:39 10° 4° (N) 2,129 5.5 -6.6°
Maximum altitude 13:02:14 60° 285° (WNW) 778 3.1 -5.6°
Drops below altitude 10° 13:06:47 10° 206° (SSW) 2,115 5.5 -4.7°
Sets 13:09:02 0° 202° (SSW) 3,026 6.4 -4.3°
